Location: Area 52 Observatory
(34.2620°N, 119.2590°W)
Time: 16:49:38
(UTC-07:00)

Tiangong 2 - Pass Details

Date: 20 March 2019
Orbit: 378 x 390 km, 42.8° (Epoch: 25 April)

Event Time Altitude Azimuth Distance (km) Brightness Sun altitude
Exits shadow 05:45:40 17° 328° (NNW) 1,069 3.1 -16.3°
Maximum altitude 05:47:26 28° 17° (NNE) 760 2.8 -15.9°
Drops below altitude 10° 05:50:14 10° 79° (E) 1,405 5.3 -15.4°
Sets 05:52:29 0° 92° (E) 2,260 6.7 -14.9°
